ASIASAT 6

Last updated on Jan. 18, 2020, 4:38 a.m. UTC

1 40141U 14052A   20017.82735325 -.00000366  00000-0  00000+0 0  9992
2 40141   0.0161  80.5724 0000573 257.0918 196.7692  1.00272129 19670
UTC
Height (km)
Latitude
Longitude
Inclination
Orbital Period
UTC large
Height (km)
Speed (km/s)
/
Latitude / Longitude
Inclination (degrees)
Orbital Period (minutes)
Azimuth
Elevation
Range (km)
Doppler Factor
iOS Compass Heading
iOS Angle

Next 30 passes for location: Hong Kong

Rise time Rise Azimuth (degrees) Set time Set Azimuth (degrees) Duration Max altitude (degrees)

No matching passes for this satellites